GEFSNE_con_probscp_276.txt.gz
Probability
15 14 14 11 9 8 8 9 8 6 7 10 11 12 15 17 16 15 16 13 7 2 1 0 0 0 0 0 0 0 0 0 0 0 0 0 1 1
14 15 14 12 11 11 11 12 12 12 11 12 12 11 13 15 15 16 17 15 10 5 2 0 0 0 0 0 0 0 0 0 0 0 0 0 0 1
15 16 16 15 15 16 14 15 17 18 16 15 13 12 13 15 17 18 19 18 14 8 2 0 0 0 0 0 0 0 0 0 0 0 0 0 0 0
17 17 18 18 19 19 17 16 19 20 18 17 16 15 16 18 20 22 21 20 17 10 3 0 0 0 0 0 0 0 0 0 0 0 0 0 0 0
20 20 21 22 22 23 21 21 23 23 21 20 20 20 21 22 23 24 23 20 16 10 4 1 0 0 0 0 0 0 0 0 0 0 0 0 0 0
27 26 25 24 24 24 24 27 28 27 25 24 23 24 25 26 26 24 22 19 16 11 6 3 1 1 1 0 0 0 0 0 0 0 0 0 0 0
33 31 27 23 23 22 22 25 27 27 26 26 25 25 25 25 25 23 20 18 15 13 10 7 4 4 3 2 1 0 0 0 0 0 0 0 0 0
36 33 26 21 20 20 18 17 18 19 21 23 23 24 23 22 22 21 20 18 16 15 12 8 7 7 6 4 2 0 0 0 0 0 0 0 0 0
36 34 29 23 21 22 20 16 14 14 15 18 20 21 21 20 21 20 19 18 17 15 11 9 9 8 7 4 2 0 0 0 0 0 0 0 0 0
34 34 33 28 24 23 23 22 19 17 15 16 17 18 18 18 17 17 17 16 15 13 12 12 11 10 7 5 3 1 0 0 0 0 0 0 0 0
33 32 32 29 22 19 22 24 24 22 18 15 14 14 14 12 11 12 14 14 12 11 13 15 14 12 10 7 5 2 1 0 0 0 0 0 0 0
33 30 26 22 16 13 17 22 25 24 19 14 11 9 9 8 8 10 12 13 12 12 14 15 15 12 10 9 7 5 3 2 1 0 0 0 0 0
32 29 23 15 10 8 11 17 21 21 17 13 10 8 7 7 8 10 12 14 14 13 14 16 15 12 10 8 7 5 4 4 2 1 1 1 0 0
28 25 18 11 5 4 6 9 11 13 13 11 10 9 8 7 9 11 13 16 16 15 15 16 15 12 9 7 6 5 4 4 3 3 2 2 1 0
21 18 12 6 3 2 2 3 5 10 12 11 10 10 9 8 10 12 14 17 17 17 17 16 13 11 9 7 6 6 5 4 3 3 3 3 2 1
12 10 6 4 4 5 5 4 7 12 14 13 11 11 10 9 10 12 13 14 14 15 15 14 12 11 10 8 7 7 6 4 3 3 3 3 3 3
10 9 7 8 10 12 12 12 11 12 13 14 13 11 10 9 9 10 10 9 9 9 10 11 12 12 11 9 8 7 6 5 4 3 3 3 3 3
13 13 13 13 15 18 19 19 17 15 14 14 14 12 9 8 8 7 6 6 6 6 7 8 11 12 11 9 7 7 6 6 5 4 4 3 3 3
14 16 17 17 19 20 21 21 20 17 15 14 14 12 10 8 7 6 5 6 6 6 6 7 9 10 9 7 6 6 6 6 6 6 5 4 3 3
13 15 18 19 20 21 21 20 18 16 13 13 13 11 10 9 8 6 5 6 6 6 6 7 7 7 7 7 7 6 5 6 6 6 6 5 4 4
11 14 16 18 19 21 22 20 17 14 12 11 12 12 10 9 9 8 6 6 6 6 6 6 6 6 6 7 7 7 5 5 5 5 5 6 5 5
11 11 12 13 16 19 22 21 18 16 13 12 12 12 10 8 7 7 7 6 6 6 6 6 6 6 6 7 7 7 6 5 4 4 3 4 4 4
12 10 8 9 13 17 20 20 19 17 13 11 11 11 9 7 6 6 6 6 6 6 6 6 6 6 6 6 6 6 6 6 4 3 2 2 2 2

GEFSNE_con_probscp_282.txt.gz
Probability
6 7 8 8 9 11 11 10 8 5 2 0 1 1 1 2 3 3 5 5 3 1 0 0 1 0 0 0 0 0 0 0 0 0 0 0 0 0
8 9 9 9 10 11 11 10 8 6 3 1 1 1 1 2 3 4 5 6 3 1 0 0 1 0 0 0 0 0 0 0 0 0 0 0 0 0
10 10 10 9 10 10 9 9 8 7 4 2 2 1 1 2 3 5 7 8 5 2 0 0 0 0 0 0 0 0 0 0 0 0 0 0 0 0
10 10 10 10 10 9 9 8 8 7 6 5 4 3 3 3 5 7 9 9 7 5 2 0 0 0 0 0 0 0 0 0 0 0 0 0 0 0
12 11 11 11 11 10 9 9 8 6 6 6 5 5 5 5 7 8 9 8 7 5 3 1 0 0 0 0 0 0 0 0 0 0 0 0 0 0
13 12 12 13 12 12 12 11 9 7 6 6 5 4 4 6 8 10 9 8 6 4 3 2 1 0 0 0 0 0 0 0 0 0 0 0 0 0
14 14 13 13 14 14 14 13 11 9 9 8 7 5 5 6 8 9 9 7 5 4 4 3 1 0 0 0 0 0 0 0 0 0 0 0 0 0
16 16 15 13 12 12 12 11 10 10 10 9 8 8 7 7 7 7 6 6 5 5 6 5 2 0 0 0 0 0 0 0 0 0 0 0 0 0
19 19 19 16 13 11 9 7 7 8 8 7 7 7 6 4 4 4 4 4 5 5 6 6 3 1 0 0 0 0 0 0 0 0 0 0 0 0
18 19 20 19 15 10 7 6 4 5 6 5 5 5 3 2 2 2 2 2 3 4 5 5 4 1 0 0 0 0 0 0 0 0 0 0 0 0
14 16 17 17 13 6 4 5 4 4 4 3 3 3 1 0 1 1 1 2 3 3 4 4 3 1 0 0 0 0 0 0 0 0 0 0 0 0
12 13 13 12 8 3 3 5 4 3 3 2 2 1 0 0 0 0 1 4 4 4 4 3 3 2 1 0 0 0 0 0 0 0 0 0 0 0
12 13 12 8 3 2 3 4 4 3 3 3 3 2 1 1 1 1 2 4 5 4 4 4 3 3 2 1 0 0 0 0 0 0 0 0 0 0
12 13 10 5 1 0 1 2 2 1 1 3 4 4 3 3 2 2 3 4 4 4 4 3 3 3 3 2 1 0 0 0 0 0 0 0 0 0
8 8 6 3 1 0 0 0 0 0 0 1 3 4 4 3 3 3 3 3 3 3 3 3 3 3 3 3 2 1 0 0 0 0 0 0 1 1
2 2 2 1 0 0 0 0 0 0 0 1 2 2 2 2 3 3 3 3 3 3 3 3 3 3 3 3 3 2 1 0 0 0 0 1 2 2
1 1 1 0 0 0 0 0 0 0 0 0 1 1 1 1 3 3 3 3 3 3 3 3 3 3 3 3 3 4 3 1 1 1 1 2 3 3
2 2 2 1 1 1 0 0 1 1 1 0 1 2 1 1 2 3 3 3 3 3 3 3 3 3 3 3 4 5 5 4 3 2 3 3 3 3
3 3 3 3 2 2 1 1 2 3 3 2 2 2 1 1 1 2 3 3 3 3 3 3 3 3 3 3 3 4 5 5 4 3 3 3 3 3
3 3 3 3 3 3 3 3 4 5 6 5 4 2 1 1 1 2 3 4 3 3 3 3 3 3 4 4 4 4 3 4 4 3 3 3 3 3
4 4 4 3 3 4 5 6 6 6 6 6 5 3 2 2 2 3 3 4 4 4 3 3 3 4 5 5 6 5 3 2 2 2 3 3 3 3
6 5 4 3 2 3 3 5 5 4 4 5 4 3 2 3 3 3 3 4 5 5 4 4 3 3 4 6 6 6 4 2 1 2 2 2 2 2
6 6 4 2 1 1 1 2 2 2 3 3 2 1 1 2 3 3 3 4 6 6 6 5 4 3 4 6 6 6 5 3 2 2 2 1 1 1

GEFSNE_con_probscp_288.txt.gz
Probability
7 7 8 8 8 8 9 8 6 5 3 4 5 5 6 5 4 4 4 2 0 0 0 0 0 1 2 3 4 5 4 1 0 0 0 0 1 1
8 8 9 9 9 9 9 9 8 7 6 5 5 6 6 5 4 5 5 3 1 0 0 0 0 0 1 1 3 4 3 1 0 0 0 0 0 1
10 10 10 10 11 10 10 10 10 9 9 8 7 6 6 5 5 6 5 4 3 2 1 0 0 0 0 0 1 2 1 0 0 0 0 0 0 0
11 11 11 11 12 12 11 10 10 10 10 9 8 6 5 4 4 5 5 4 3 3 2 1 0 0 0 0 0 0 0 0 0 0 0 0 0 0
11 10 11 11 12 12 12 10 10 10 10 9 8 6 4 3 3 3 3 3 3 3 2 1 0 0 0 0 0 0 0 0 0 0 0 0 0 0
9 9 10 11 12 12 12 12 11 10 9 9 9 7 6 5 4 3 3 3 4 3 2 1 1 1 0 0 0 0 0 0 0 0 0 0 0 0
8 9 10 10 11 10 11 12 10 9 10 10 10 9 9 8 7 5 5 6 5 3 3 3 3 2 1 0 0 0 0 0 0 0 0 0 0 0
8 10 11 10 10 8 7 7 6 7 9 11 12 11 11 11 10 8 7 6 5 4 3 3 2 1 1 1 1 0 0 0 0 0 0 0 0 0
11 12 12 11 11 10 8 6 4 3 5 9 11 11 11 11 10 8 6 5 4 3 2 2 1 1 2 2 1 0 0 0 0 0 0 0 0 0
13 14 14 13 12 13 13 13 9 4 2 4 6 6 6 6 6 5 4 2 2 2 2 2 2 3 3 3 2 1 0 0 0 0 0 0 0 0
13 14 14 13 10 9 13 15 13 8 3 1 1 1 1 2 2 2 1 1 1 1 2 3 3 3 4 4 3 2 1 0 0 0 0 0 0 0
13 12 11 8 5 5 8 11 12 10 6 2 1 0 0 0 0 0 1 2 2 2 2 3 3 4 4 4 3 2 1 0 0 0 0 0 0 0
12 11 9 5 2 2 5 7 7 7 6 4 2 1 1 1 1 0 1 2 2 2 2 2 3 3 4 4 3 2 0 0 0 0 0 0 0 0
13 12 9 4 1 0 2 4 3 3 4 4 4 3 3 3 2 1 0 1 1 1 1 1 2 3 4 5 4 2 1 0 0 0 0 0 0 0
10 9 6 3 1 1 1 1 1 2 3 4 5 6 6 5 4 1 0 0 0 0 0 0 1 3 4 5 4 3 2 1 1 1 1 1 1 1
6 5 4 3 2 2 2 2 2 3 3 4 5 6 6 6 4 1 0 0 0 0 0 0 1 1 2 3 3 3 4 3 3 3 2 2 2 2
4 5 5 5 5 4 3 3 3 3 3 3 4 5 6 6 4 1 0 0 0 0 0 0 0 0 1 2 3 3 5 5 5 4 3 3 3 3
2 5 7 8 8 7 5 4 4 3 3 4 4 5 6 6 5 2 0 0 0 0 0 0 0 0 1 1 1 2 4 6 6 4 3 3 3 3
1 4 8 10 10 9 8 6 5 4 4 5 6 6 6 7 7 5 2 0 0 0 1 1 0 0 0 0 0 1 3 5 6 5 4 3 3 3
2 4 7 10 11 11 10 9 7 6 6 6 7 6 7 9 9 7 5 2 0 1 2 2 1 0 0 0 0 0 2 3 5 6 5 4 3 3
3 4 6 9 11 12 12 10 9 7 6 5 5 5 7 9 9 8 7 4 2 2 3 3 2 1 0 0 0 0 1 1 2 4 5 5 4 4
4 5 6 7 9 11 11 11 10 8 6 4 3 3 5 6 6 6 6 4 3 2 3 3 2 1 1 1 1 1 1 0 1 2 3 3 3 3
4 4 4 5 6 8 11 12 11 9 7 4 2 1 2 2 2 3 3 3 3 2 1 2 1 1 2 2 2 2 1 1 2 3 2 2 2 2

GEFSNE_con_probscp_294.txt.gz
Probability
14 16 16 15 13 13 13 10 9 9 9 10 10 9 9 11 13 14 13 10 7 4 2 1 0 0 1 2 2 3 4 6 8 9 10 9 7 6
18 18 19 18 17 18 17 14 12 14 14 13 13 13 13 12 13 15 14 12 8 5 2 1 0 0 0 1 1 2 3 4 6 8 9 9 7 6
18 18 18 20 21 21 20 18 18 21 22 19 16 16 16 16 16 17 16 14 10 6 2 1 0 0 0 0 0 1 1 2 4 6 7 7 5 4
15 15 15 18 20 21 20 21 22 24 25 22 19 18 18 17 18 18 17 15 12 6 2 1 0 0 0 0 0 0 0 1 1 3 3 3 2 1
12 12 14 17 21 21 21 21 23 23 24 23 20 18 18 18 19 18 16 15 12 7 2 0 0 0 0 0 0 0 0 0 0 1 1 1 0 0
12 12 14 18 21 22 22 23 24 24 24 23 22 21 20 22 21 18 16 15 12 8 4 1 1 0 0 0 0 0 0 0 0 0 0 0 0 0
14 14 15 17 18 19 19 20 24 27 28 28 27 26 24 25 23 19 16 14 13 10 7 4 3 2 1 1 0 0 0 0 0 0 0 0 0 0
18 18 17 16 15 14 12 12 16 21 24 28 30 30 28 27 25 20 17 15 13 12 9 7 6 5 3 1 0 0 0 0 0 0 0 0 0 0
21 20 19 17 15 14 12 10 10 12 16 22 27 29 29 29 27 23 20 17 15 13 11 9 8 6 3 1 0 0 0 0 0 0 0 0 0 0
23 22 21 19 15 14 15 15 15 13 12 14 19 22 22 24 25 23 21 19 16 14 12 11 9 6 3 1 0 0 0 0 0 0 0 0 0 0
23 22 20 18 14 12 16 19 20 19 15 12 12 12 13 13 16 20 21 18 16 15 15 12 10 7 5 3 1 0 0 0 0 0 0 0 0 0
23 21 17 14 11 10 14 18 21 20 18 15 13 12 12 11 13 18 21 19 18 18 16 12 9 7 6 5 4 2 1 0 0 0 0 0 0 0
23 22 17 11 7 7 9 14 16 17 18 18 17 17 18 18 18 19 21 20 21 21 18 12 7 5 5 6 6 5 3 1 0 0 0 0 0 0
22 20 15 8 4 2 4 7 9 11 14 17 19 20 20 20 21 21 22 23 24 24 21 14 9 6 4 5 7 6 5 3 1 1 2 1 1 0
17 14 8 3 1 1 2 3 5 9 13 15 16 17 18 19 21 24 25 25 25 23 21 17 13 9 6 6 7 8 6 4 2 2 2 3 3 2
13 10 6 4 3 5 5 5 6 11 13 13 15 16 16 19 22 24 24 24 22 20 18 16 14 12 10 8 9 9 7 4 2 2 2 3 4 5
13 14 12 11 11 11 10 9 11 14 15 16 17 17 16 17 19 21 22 22 20 18 16 14 12 11 11 10 9 9 8 5 3 3 4 4 4 5
14 17 19 18 18 16 13 12 14 17 20 22 22 21 19 18 19 21 22 21 20 18 17 16 13 9 8 8 7 6 6 6 4 5 5 5 4 4
15 18 20 21 20 17 13 13 14 17 22 25 26 25 23 20 20 22 22 21 21 20 19 18 14 10 7 7 6 4 4 5 5 5 6 6 5 4
16 18 18 18 18 16 14 14 14 16 19 23 25 25 23 20 20 20 19 19 20 20 19 18 15 11 9 8 7 5 4 4 6 7 8 8 6 4
16 17 16 15 16 16 15 15 15 15 17 18 19 21 21 17 16 15 14 13 14 15 16 17 15 13 12 11 9 6 5 4 5 6 7 7 6 4
16 16 15 14 15 16 16 16 14 14 14 13 13 17 18 15 12 11 10 7 7 8 9 12 14 14 13 12 9 7 5 4 3 4 3 3 4 3
17 17 15 14 14 16 16 15 14 13 12 10 11 14 15 13 11 10 8 5 4 4 5 7 11 12 11 9 8 6 5 4 3 3 2 1 1 2

GEFSNE_con_probscp_300.txt.gz
Probability
28 26 23 19 16 16 19 21 18 15 14 17 21 23 20 17 16 16 15 11 6 4 2 2 2 2 3 4 4 2 1 1 2 4 5 5 8 10
25 23 20 18 16 16 21 24 23 19 16 17 20 21 19 17 15 16 15 11 7 4 2 1 1 1 1 1 1 1 0 0 1 3 4 4 6 7
20 20 19 19 18 18 22 25 26 23 19 17 17 20 21 19 18 18 17 14 11 6 2 0 0 0 0 0 0 0 0 0 1 2 3 3 4 5
17 18 19 20 21 21 20 21 23 23 21 18 18 20 22 22 22 22 20 17 14 8 3 1 0 0 0 0 0 0 0 0 0 1 2 3 3 4
18 18 19 20 21 20 19 19 20 22 22 21 21 21 23 23 22 22 21 19 16 10 5 2 0 0 0 0 0 0 0 0 0 0 1 1 2 2
21 21 21 21 20 19 19 20 21 22 22 23 23 23 25 25 23 22 20 19 16 12 8 4 1 0 0 0 0 0 0 0 0 0 0 0 1 1
24 24 23 22 20 18 17 19 20 20 21 24 25 26 29 28 25 22 18 16 15 14 12 9 5 2 1 1 0 0 0 0 0 0 0 0 0 0
26 26 25 23 21 18 15 14 13 14 17 22 25 27 30 30 27 23 19 17 15 15 15 13 10 7 5 3 1 0 0 0 0 0 0 0 0 0
27 27 26 25 23 21 17 13 11 10 12 16 21 25 28 29 28 25 22 21 19 18 17 15 12 11 10 6 2 0 0 0 0 0 0 0 0 0
27 27 28 26 23 22 21 19 15 12 10 10 14 19 22 24 25 24 23 22 20 18 16 15 13 13 12 8 2 0 0 0 0 0 0 0 0 0
27 26 26 24 20 18 20 22 21 18 14 11 11 13 14 15 18 20 20 20 17 15 16 17 15 14 12 8 3 0 0 0 0 0 0 0 0 0
25 25 22 18 14 12 16 20 21 20 17 14 11 11 12 13 14 16 17 18 17 16 17 17 16 15 13 9 5 1 0 0 0 0 0 0 0 0
21 21 17 12 8 7 10 16 17 17 16 15 14 14 16 17 18 18 19 19 20 20 19 18 16 15 13 10 6 3 1 1 0 0 0 0 0 0
16 16 12 6 3 2 5 9 11 12 14 15 16 18 19 20 22 23 23 23 22 23 22 20 18 16 13 10 8 4 2 1 0 0 0 0 0 0
11 10 6 3 1 0 1 3 5 9 13 16 18 19 20 20 22 24 24 23 22 23 24 24 22 18 15 13 9 5 3 1 1 0 0 0 0 0
9 8 5 3 2 2 3 3 5 8 12 15 18 19 20 20 21 23 22 20 19 21 25 27 25 22 19 15 11 8 5 4 3 1 1 0 1 1
10 12 11 9 8 7 8 9 9 10 12 14 16 18 19 19 21 22 21 19 18 19 23 27 27 24 21 17 12 10 8 8 6 4 3 2 3 3
11 16 18 16 15 14 14 14 14 14 16 16 17 18 18 18 20 20 19 18 17 15 17 21 24 22 18 14 11 10 9 9 8 7 6 5 6 6
12 16 20 20 20 19 19 19 18 19 20 19 19 19 18 18 19 18 16 15 14 12 12 16 19 18 14 10 9 8 9 9 10 9 9 8 7 7
16 17 19 21 22 21 22 22 22 22 21 20 19 20 18 17 18 16 13 10 10 9 10 12 14 14 11 9 8 8 7 8 9 10 10 9 8 7
18 18 19 20 21 21 22 24 25 24 21 19 20 20 18 17 16 14 10 8 7 8 8 9 9 9 9 9 9 9 8 7 7 8 8 8 8 8
18 18 19 19 20 23 25 25 25 22 19 17 17 19 18 16 14 11 7 6 6 6 6 6 7 8 8 9 9 9 8 7 6 5 5 5 6 6
18 19 19 19 21 24 27 27 23 19 16 14 14 16 16 15 12 9 6 5 4 4 4 4 6 8 8 8 8 8 8 7 6 5 4 3 2 2

GEFSNE_con_probscp_306.txt.gz
Probability
0 0 0 1 3 4 4 4 4 3 2 1 0 0 1 4 6 7 6 4 2 1 0 1 2 3 3 3 3 3 3 3 4 6 7 7 4 3
1 1 1 2 3 4 5 6 5 5 3 2 1 1 2 4 6 7 6 4 2 0 0 0 1 1 1 2 2 2 2 3 3 4 5 5 4 3
4 4 4 4 5 5 6 6 6 6 5 4 3 2 3 4 5 6 6 4 2 1 0 0 0 0 0 1 1 1 1 1 2 3 3 3 3 3
8 7 7 7 7 6 6 6 6 6 6 5 4 3 4 5 5 6 6 5 4 3 2 1 0 0 0 0 0 0 0 0 1 1 1 1 1 2
10 9 9 9 8 7 6 6 6 6 5 4 3 3 3 4 5 6 7 6 6 5 5 3 2 0 0 0 0 0 0 0 0 0 0 0 0 1
11 10 10 10 9 8 7 6 6 5 4 3 3 3 4 5 5 6 6 6 6 6 6 6 4 2 0 0 0 0 0 0 0 0 0 0 0 0
11 12 11 11 9 8 6 4 3 3 3 3 3 4 5 6 6 5 5 6 6 6 6 6 5 3 1 1 0 0 0 0 0 0 0 0 0 0
13 13 13 12 9 6 3 2 1 1 1 3 3 4 5 6 5 4 5 6 6 6 6 6 6 4 3 3 1 0 0 0 0 0 0 0 0 0
14 14 13 12 8 5 3 2 0 0 1 3 3 4 4 4 4 4 4 5 5 5 6 6 6 6 6 5 3 1 0 0 0 0 0 0 0 0
11 11 12 11 8 6 6 5 4 2 3 3 3 4 4 3 2 3 3 4 4 4 4 4 4 5 6 5 4 2 1 0 0 0 0 0 0 0
10 10 10 10 7 6 8 9 8 6 4 3 2 3 2 1 1 1 3 3 3 3 3 3 3 4 4 4 3 3 1 0 0 0 0 0 0 0
12 10 8 8 6 4 7 10 10 8 6 2 1 1 1 0 0 1 2 3 3 3 3 3 3 3 3 3 3 3 2 1 0 0 0 0 0 0
12 10 8 6 3 2 4 7 8 8 7 4 2 1 1 0 0 1 2 3 3 3 3 3 3 3 3 3 3 3 2 1 0 0 0 0 0 0
10 9 7 4 1 0 1 4 5 6 7 7 6 5 3 1 1 0 1 1 2 3 3 3 3 4 3 3 3 3 1 0 0 0 0 0 0 0
6 5 4 1 0 0 0 1 2 5 7 9 8 7 5 4 2 1 0 1 2 3 3 2 3 3 3 3 4 3 2 0 0 0 0 0 0 0
2 1 1 0 0 0 0 0 1 4 7 8 8 6 5 5 3 1 0 1 2 2 1 1 1 1 1 3 4 5 4 2 1 1 0 0 0 0
1 1 0 0 0 0 0 0 0 2 5 6 5 4 3 3 2 1 0 1 2 2 1 0 0 0 0 1 3 5 5 5 4 3 2 2 2 2
1 2 2 2 1 1 1 1 1 1 2 4 3 2 2 2 1 0 0 1 1 1 0 0 0 0 0 1 2 3 4 5 5 5 5 5 5 5
1 2 4 4 3 3 4 4 2 0 1 2 2 2 2 2 1 1 1 1 1 0 0 0 0 1 1 2 2 2 2 3 3 4 5 6 6 5
1 2 4 4 4 4 6 6 3 0 0 1 2 2 3 3 3 3 3 2 1 1 1 1 1 2 3 3 2 1 0 1 1 2 3 4 4 3
2 4 5 4 3 4 6 6 3 1 1 2 2 2 3 4 5 6 5 3 2 2 2 2 3 3 3 3 2 1 0 0 0 1 1 1 1 1
6 8 8 5 2 2 3 4 4 3 4 5 4 4 5 6 6 6 5 4 3 3 3 2 2 2 2 2 1 0 0 0 0 0 0 0 0 0
9 10 10 6 2 1 2 3 4 4 7 9 8 7 7 8 6 5 4 4 3 3 2 1 1 1 1 1 0 0 0 0 0 0 0 0 0 0

GEFSNE_con_probscp_312.txt.gz
Probability
4 3 2 3 4 5 5 5 5 4 4 3 2 2 2 1 2 5 6 5 2 1 0 0 0 0 0 0 0 1 2 3 5 6 7 7 6 5
5 5 5 6 7 7 7 7 6 5 4 4 4 4 3 2 2 4 5 4 2 1 0 0 0 0 0 0 0 0 1 3 4 5 5 5 4 4
7 7 8 9 9 9 9 9 8 7 6 6 6 6 4 3 3 3 4 4 3 1 0 0 0 0 0 0 0 0 1 2 2 2 2 2 3 3
8 9 10 10 10 10 10 10 9 9 8 8 7 6 5 4 3 3 3 3 2 1 0 0 0 0 0 0 0 0 0 1 1 0 0 1 2 2
12 12 12 13 13 12 11 10 10 10 10 9 8 7 5 4 2 1 1 1 1 0 0 0 0 0 0 0 0 0 0 0 0 0 0 0 1 1
17 16 15 15 15 13 11 10 10 10 10 9 7 6 4 2 1 0 0 0 0 0 0 1 1 1 1 0 0 0 0 0 0 0 0 0 0 0
19 18 17 15 13 11 11 10 10 10 9 7 4 3 3 2 1 0 0 0 0 1 1 2 3 3 2 1 1 1 0 0 0 0 0 0 0 0
19 18 16 13 12 10 9 8 7 7 7 5 3 2 2 2 2 1 0 1 1 2 3 4 4 4 3 3 2 1 0 0 0 0 0 0 0 0
17 16 15 13 12 11 9 5 4 4 4 5 4 4 3 2 3 3 2 2 2 2 3 4 4 3 3 3 2 1 0 0 0 0 0 0 0 0
16 17 15 12 11 10 9 6 5 5 3 3 4 5 4 3 4 4 3 3 2 1 2 2 2 1 1 2 1 0 0 0 0 0 0 0 0 0
18 18 15 11 8 7 8 8 8 8 5 3 2 3 3 2 3 3 3 3 2 1 1 1 1 1 1 0 0 1 1 0 0 0 0 0 0 0
19 18 15 10 5 3 5 8 8 9 8 6 5 4 3 2 2 3 3 3 3 2 1 1 2 3 2 1 2 2 2 1 1 0 0 0 0 0
15 15 13 7 2 1 2 5 6 6 8 9 9 9 7 5 4 4 4 4 4 4 3 2 3 3 3 3 3 3 2 2 1 0 0 0 0 0
10 11 9 4 0 0 1 2 2 3 5 8 10 11 10 8 7 6 5 4 3 3 3 2 2 3 3 3 4 3 1 1 1 0 0 1 1 1
7 6 4 1 0 0 0 0 0 1 3 6 8 9 9 9 8 7 6 3 1 1 1 1 1 2 3 3 3 2 1 0 1 2 2 3 3 2
5 4 2 1 0 1 1 1 2 2 3 5 7 7 8 7 7 7 6 3 1 1 2 1 1 2 4 4 4 3 1 1 4 5 4 4 4 2
3 3 3 2 2 2 3 4 4 3 3 4 6 7 8 8 7 7 6 3 1 3 5 4 2 2 4 5 4 3 2 2 5 6 5 4 3 2
2 3 4 4 3 3 4 4 4 3 3 3 5 6 7 9 8 7 5 3 2 3 6 7 5 2 2 2 2 2 1 2 4 5 5 4 2 1
2 4 5 6 5 4 5 6 7 6 5 4 4 4 6 7 7 5 5 4 2 2 4 5 4 2 1 2 2 2 0 1 3 3 3 2 1 0
2 4 6 6 6 6 7 9 10 10 8 6 4 3 3 4 4 4 4 3 3 2 3 3 2 2 2 4 4 2 1 1 2 2 2 1 0 0
3 4 6 6 6 6 7 9 10 11 10 7 5 3 2 2 3 3 3 4 4 3 4 4 3 2 2 4 3 2 1 0 1 1 1 0 0 0
5 6 7 7 7 7 8 8 9 10 9 7 5 3 1 1 2 2 3 4 4 3 4 4 4 2 1 1 1 1 0 0 0 0 0 0 0 0
6 8 9 9 9 9 9 9 8 8 8 7 5 3 2 2 1 1 2 4 4 3 3 4 4 2 1 0 0 0 0 0 0 0 0 0 0 0

GEFSNE_con_probscp_318.txt.gz
Probability
13 13 14 16 19 19 18 17 15 12 11 13 14 13 14 13 11 11 14 12 6 1 0 0 0 0 0 0 0 0 0 0 0 1 2 4 5 5
16 16 17 17 18 19 19 19 18 15 12 14 15 15 15 13 11 12 14 12 6 2 0 0 0 0 0 0 0 0 0 0 0 1 2 3 4 4
20 20 20 20 20 21 21 22 22 20 17 16 16 16 16 15 13 14 14 12 8 3 1 0 0 0 0 0 0 0 0 0 0 0 1 2 2 2
20 21 23 25 25 25 25 25 25 24 22 19 17 17 17 16 15 14 13 10 7 5 2 1 0 0 0 0 0 0 0 0 0 0 0 1 2 2
21 23 26 29 29 29 28 28 27 27 25 23 20 19 18 16 15 14 13 11 7 5 3 2 1 0 0 0 0 0 0 0 0 0 0 1 1 2
24 26 28 29 29 30 29 27 27 28 27 24 22 20 18 17 15 14 13 11 8 5 4 4 2 1 1 0 0 0 0 0 0 0 0 0 1 1
27 28 28 28 27 25 22 21 23 26 27 25 23 22 20 18 16 13 12 10 8 7 6 5 3 3 2 1 0 0 0 0 0 0 0 0 0 0
27 29 29 27 25 20 15 12 14 18 22 25 25 24 23 20 17 13 12 11 10 9 8 5 4 4 3 1 0 0 0 0 0 0 0 0 0 0
27 29 29 28 26 22 16 13 12 12 15 22 25 25 23 21 19 16 15 14 14 13 10 7 5 5 4 2 1 0 0 0 0 0 0 0 0 0
25 26 27 27 25 23 22 22 21 17 14 16 21 21 20 20 20 19 17 17 16 15 13 10 8 7 6 5 2 0 0 0 0 0 0 0 0 0
22 22 22 22 18 16 19 24 25 24 19 15 13 13 13 13 16 17 17 17 16 15 14 13 11 10 9 7 4 1 0 0 0 0 0 0 0 0
20 18 16 13 10 8 12 17 20 21 20 16 12 9 8 9 12 16 17 17 17 16 16 16 14 12 11 10 7 4 3 2 1 0 0 0 0 0
17 15 12 7 3 3 6 10 12 13 14 15 14 13 11 12 14 17 19 19 19 18 18 19 18 16 15 13 11 9 8 7 5 2 1 0 0 0
12 11 8 3 0 0 2 5 6 7 9 12 15 16 15 15 17 19 20 22 22 19 18 19 20 20 20 17 15 13 12 10 7 5 3 2 2 2
6 5 4 1 0 1 1 1 3 6 9 11 14 15 15 16 17 18 20 21 21 19 18 19 21 22 22 19 16 15 14 12 10 8 7 6 5 5
4 4 3 2 2 3 3 3 4 7 10 12 13 15 16 16 16 18 19 20 19 18 18 19 20 21 21 19 16 16 15 14 12 11 10 9 7 6
6 7 6 6 6 7 8 8 8 9 11 12 13 15 16 16 16 17 18 19 18 18 18 19 19 19 20 19 17 17 16 14 13 12 11 9 7 6
7 9 9 9 9 10 11 11 10 11 11 11 13 14 15 16 16 16 16 16 16 17 17 18 18 18 17 17 16 15 14 14 13 11 9 7 6 6
7 10 11 10 9 10 11 12 11 11 11 10 11 12 13 14 15 15 15 15 15 16 16 17 17 17 16 16 14 10 10 11 11 9 7 6 5 5
8 11 12 10 9 10 11 12 12 11 11 10 10 10 10 12 14 14 14 15 15 16 17 18 17 17 16 15 11 6 4 6 7 7 6 4 4 4
8 11 13 12 11 11 12 12 11 11 11 11 10 9 9 11 13 14 14 14 14 16 18 17 17 16 15 13 10 7 3 2 3 4 3 3 2 2
12 13 14 13 12 13 14 12 10 10 11 12 11 10 9 10 11 12 13 13 13 14 15 16 15 15 13 12 10 7 4 1 1 1 1 1 1 1
16 16 14 12 12 15 15 12 10 11 12 13 12 11 10 10 10 10 11 12 13 13 14 15 15 14 13 12 10 6 3 1 0 0 0 0 0 0

GEFSNE_con_probscp_324.txt.gz
Probability
33 34 31 26 23 23 22 21 18 14 14 16 17 17 18 18 19 21 22 16 8 3 2 2 1 0 0 0 0 0 0 0 0 0 1 3 5 5
34 34 33 29 26 25 23 22 21 19 18 17 16 16 16 16 17 20 21 17 10 4 2 1 0 0 0 0 0 0 0 0 0 0 0 2 3 4
32 32 32 31 29 28 27 26 25 24 22 19 17 17 17 17 18 19 20 18 13 7 2 0 0 0 0 0 0 0 0 0 0 0 0 0 1 2
30 30 31 31 31 31 30 29 29 28 25 22 20 21 22 22 21 20 18 17 15 9 3 0 0 0 0 0 0 0 0 0 0 0 0 0 0 1
32 31 31 31 32 32 32 32 31 30 28 26 24 24 25 25 22 19 17 16 14 9 5 2 0 0 0 0 0 0 0 0 0 0 0 0 0 0
34 34 32 32 32 33 33 34 34 32 30 29 27 26 25 24 22 19 17 16 14 11 8 5 2 2 1 0 0 0 0 0 0 0 0 0 0 0
36 36 33 30 29 28 27 28 31 32 32 29 28 26 24 23 22 20 18 17 15 14 12 9 6 6 5 3 1 0 0 0 0 0 0 0 0 0
35 35 33 27 24 22 20 18 19 24 27 27 26 24 23 22 21 20 19 18 17 16 15 12 11 10 9 6 2 0 0 0 0 0 0 0 0 0
32 31 30 26 23 21 19 14 12 13 16 19 20 19 19 20 20 19 18 18 17 17 16 14 13 13 11 8 4 1 0 0 0 0 0 0 0 0
28 28 28 26 24 22 21 18 16 14 11 11 13 12 12 14 16 17 18 17 16 15 14 12 12 13 12 10 6 2 0 0 0 0 0 0 0 0
26 26 26 24 20 17 19 21 19 17 13 10 8 7 5 6 8 12 17 17 14 13 12 12 12 13 14 12 8 3 0 0 0 0 0 0 0 0
22 21 20 16 11 9 13 17 17 14 12 11 9 7 6 6 7 9 13 14 13 13 13 13 13 14 15 14 11 7 4 2 0 0 0 0 0 0
18 17 14 8 3 2 6 11 12 10 10 10 10 10 11 12 12 12 13 13 13 13 13 13 13 14 14 12 11 10 9 6 4 2 1 0 0 0
16 15 9 3 0 0 2 5 6 6 8 9 10 11 14 15 14 14 16 16 14 13 14 13 12 12 12 11 10 11 11 10 9 7 4 1 0 1
11 9 5 2 0 0 0 1 2 5 8 10 9 11 15 15 14 14 17 18 17 16 15 14 13 12 12 11 10 12 12 12 11 10 7 5 3 2
6 5 3 2 1 1 3 4 5 8 10 11 10 12 15 16 14 14 16 18 18 17 16 16 16 15 13 11 10 12 13 12 11 11 11 9 6 4
5 6 6 6 6 6 9 11 12 12 13 12 11 11 14 14 14 14 14 15 15 15 15 16 16 15 14 12 11 12 13 14 13 13 12 10 7 4
5 8 10 10 11 12 14 16 17 17 16 14 12 11 12 12 13 14 14 13 13 13 13 14 15 15 14 12 11 10 12 15 15 13 11 7 5 4
8 11 13 12 13 15 16 17 18 19 18 16 13 11 10 10 12 14 14 12 11 10 10 11 13 14 13 11 9 8 9 12 13 12 9 5 3 2
10 12 12 12 13 15 16 17 17 18 18 18 17 14 12 11 12 13 13 11 9 8 8 9 11 12 11 10 9 7 6 6 9 9 7 3 1 1
12 13 13 12 13 14 16 17 17 17 18 21 20 18 15 14 14 13 11 9 8 8 8 10 11 11 11 11 10 7 4 2 4 6 4 1 0 0
13 14 14 14 14 14 16 17 16 17 19 21 20 18 17 16 16 14 11 10 9 10 11 12 12 11 10 10 9 7 4 2 1 2 1 0 0 0
13 14 16 16 14 14 15 16 16 17 19 19 18 17 17 17 17 14 12 11 11 12 13 13 12 11 10 10 9 6 4 2 1 0 0 0 0 0

GEFSNE_con_probscp_330.txt.gz
Probability
9 10 11 12 14 15 13 11 8 6 5 5 5 5 5 4 4 3 3 3 3 3 3 3 3 1 1 2 4 4 3 2 1 0 0 0 0 0
11 11 11 12 14 15 14 11 9 8 7 7 7 7 6 5 5 5 4 4 4 4 3 3 3 2 1 1 1 2 2 2 1 1 1 0 0 0
11 11 10 11 12 13 13 11 10 9 8 8 8 9 8 7 8 7 6 6 6 5 4 3 2 1 0 0 0 0 0 1 1 1 1 0 0 0
11 10 9 9 10 11 11 10 10 10 10 9 8 9 9 9 9 8 7 6 6 6 4 2 1 0 0 0 0 0 0 0 0 1 1 0 0 0
11 10 8 8 9 9 9 9 9 10 10 9 8 8 9 9 9 8 6 5 5 5 4 2 1 0 0 0 0 0 0 0 0 0 0 0 0 0
8 8 7 7 7 8 8 8 9 9 9 9 9 8 8 7 7 6 4 4 4 4 4 4 3 1 0 0 0 0 0 0 0 0 0 0 0 0
4 5 6 6 7 7 6 6 8 10 11 10 9 9 8 7 6 6 5 4 4 3 3 4 3 1 0 1 1 1 0 0 0 0 0 0 0 0
3 4 5 7 8 7 6 4 5 8 11 11 10 10 9 9 8 7 7 6 5 4 3 2 1 0 0 1 2 1 0 0 0 0 0 0 0 0
4 4 5 8 9 9 7 5 4 5 7 9 10 9 9 8 7 6 6 5 4 3 2 1 0 0 0 1 1 1 0 0 0 0 0 0 0 0
6 6 8 9 9 7 6 6 6 5 5 6 6 6 6 5 3 3 3 3 2 1 1 0 0 0 0 0 0 0 0 0 0 0 0 0 0 0
8 8 8 9 6 4 4 5 5 5 4 3 2 2 2 1 1 1 2 2 1 0 0 1 1 0 0 0 0 0 0 0 0 0 0 0 0 0
10 8 7 5 3 2 2 3 3 3 3 2 1 0 0 0 0 1 2 2 1 1 1 1 1 1 0 0 0 0 0 0 0 0 0 0 0 0
11 8 6 3 1 1 1 2 2 2 2 2 2 1 1 0 1 1 2 3 3 3 2 2 3 3 2 0 0 0 0 0 0 0 0 0 0 0
10 7 5 3 1 0 0 1 1 1 0 1 2 2 2 2 2 3 3 4 5 5 5 4 5 5 4 2 1 1 1 1 0 0 0 0 0 0
5 4 3 1 0 0 0 0 0 0 0 0 1 2 2 3 3 4 4 5 5 6 6 6 6 6 6 4 3 3 3 2 1 0 0 0 0 0
1 1 1 0 0 0 0 0 0 0 0 0 0 1 1 2 2 3 4 5 5 5 6 6 6 6 6 6 5 5 5 4 2 1 1 1 0 0
0 0 0 0 0 0 0 0 0 0 0 0 0 0 0 1 2 4 5 7 7 7 7 6 6 6 7 7 7 6 6 5 4 3 2 2 1 0
0 0 0 0 0 0 0 0 1 1 1 1 1 1 1 2 4 7 8 9 9 9 8 6 5 6 6 7 7 6 6 6 5 4 3 2 1 0
0 0 0 0 0 0 0 0 1 2 2 2 2 2 2 2 4 7 9 9 8 8 6 5 5 6 6 5 5 5 5 6 6 5 4 2 1 0
0 0 0 1 1 0 0 1 1 2 2 3 3 4 3 2 3 4 6 6 5 4 4 4 4 4 4 4 4 3 2 3 5 5 4 2 1 0
0 0 1 2 2 1 1 2 2 2 3 3 4 5 4 3 3 3 3 3 3 3 3 3 3 2 2 3 3 2 1 1 2 3 2 1 0 0
0 0 1 2 3 3 3 3 2 2 2 3 4 4 5 5 4 3 4 4 3 3 3 2 1 0 1 1 1 1 0 0 0 1 1 0 0 0
0 0 0 1 3 3 3 3 2 1 1 2 3 4 5 5 4 4 5 6 5 3 3 1 0 0 0 1 0 0 0 0 0 0 0 0 0 0